DAH2070 DAAG-EDDF

Flight info

Callsign DAH2070
Flight time 2h 4m
Altitude 36000
Route OTARO1D OTARO DCT RISEP/N0447F380 DCT KIFMI DCT SURJU DCT MAXIR DCT LUSOL DCT BODRU DCT OKTET DCT IRMAR DCT KINES DCT VANAS DCT ESOKO DCT GODRA/N0444F330 DCT LADOL/N0449F380 T163 EMPAX EMPAX5B
Aircraft B738/M-SDE2E3FGHIRWXY/LB1

Departure

Time 2026-05-05 12:54
Airport Houari Boumediene Airport (DAAG)

Arrival

Time 2026-05-05 14:58
Airport Frankfurt Main Airport (EDDF)
Time Latitude Longitude Altitude Speed Heading
2026-05-05 12:29 36.69761 3.20286 69 ft 0 kts 271°
2026-05-05 12:45 36.69761 3.20299 61 ft 4 kts 268°
2026-05-05 12:45 36.69761 3.20328 61 ft 4 kts 261°
2026-05-05 12:45 36.69771 3.20351 63 ft 4 kts 195°
2026-05-05 12:46 36.69796 3.20352 67 ft 4 kts 171°
2026-05-05 12:46 36.69808 3.20349 64 ft 4 kts 178°
2026-05-05 12:46 36.69781 3.20351 66 ft 4 kts 175°
2026-05-05 12:46 36.69754 3.20357 59 ft 3 kts 168°
2026-05-05 12:47 36.69750 3.20358 62 ft 0 kts 168°
2026-05-05 12:50 36.69749 3.20358 62 ft 1 kts 168°
2026-05-05 12:50 36.69715 3.20367 64 ft 10 kts 171°
2026-05-05 12:50 36.69625 3.20379 65 ft 14 kts 152°
2026-05-05 12:50 36.69603 3.20490 66 ft 13 kts 91°
2026-05-05 12:51 36.69601 3.20604 69 ft 13 kts 91°
2026-05-05 12:51 36.69599 3.20714 69 ft 13 kts 91°
2026-05-05 12:51 36.69567 3.20804 64 ft 12 kts 156°
2026-05-05 12:51 36.69487 3.20839 63 ft 12 kts 161°
2026-05-05 12:52 36.69403 3.20874 63 ft 14 kts 161°
2026-05-05 12:52 36.69307 3.20914 68 ft 14 kts 161°
2026-05-05 12:52 36.69214 3.20954 71 ft 14 kts 161°
2026-05-05 12:52 36.69122 3.20959 72 ft 13 kts 203°
2026-05-05 12:53 36.69117 3.20945 67 ft 1 kts 265°
2026-05-05 12:53 36.69116 3.20934 70 ft 1 kts 265°
2026-05-05 12:53 36.69116 3.20924 72 ft 1 kts 265°
2026-05-05 12:53 36.69117 3.20819 74 ft 39 kts 271°
2026-05-05 12:54 36.69167 3.18980 99 ft 163 kts 276°
2026-05-05 12:54 36.69253 3.17494 628 ft 172 kts 275°
2026-05-05 12:54 36.69350 3.15999 1336 ft 176 kts 279°
2026-05-05 12:55 36.69553 3.14489 1945 ft 186 kts 288°
2026-05-05 12:55 36.70259 3.13017 2237 ft 210 kts 318°
2026-05-05 12:55 36.71611 3.12146 2520 ft 229 kts 347°
2026-05-05 12:55 36.73226 3.12209 2898 ft 243 kts 19°
2026-05-05 12:56 36.74636 3.13380 3435 ft 250 kts 46°
2026-05-05 12:56 36.75891 3.15040 3784 ft 271 kts 48°
2026-05-05 12:56 36.77184 3.16817 4447 ft 279 kts 49°
2026-05-05 12:56 36.78500 3.18643 5165 ft 285 kts 49°
2026-05-05 12:57 36.79816 3.20477 5884 ft 289 kts 49°
2026-05-05 12:57 36.81170 3.22368 6591 ft 294 kts 48°
2026-05-05 12:57 36.82556 3.24288 7253 ft 300 kts 48°
2026-05-05 12:57 36.83961 3.26243 7955 ft 304 kts 48°
2026-05-05 12:58 36.85507 3.28063 8612 ft 309 kts 30°
2026-05-05 12:58 36.87482 3.29105 9319 ft 309 kts 15°
2026-05-05 12:58 36.89540 3.29940 10015 ft 313 kts 14°
2026-05-05 12:58 36.91662 3.30775 10373 ft 330 kts 14°
2026-05-05 12:59 36.93902 3.31656 10530 ft 352 kts 14°
2026-05-05 12:59 36.96287 3.32608 10923 ft 364 kts 13°
2026-05-05 12:59 36.98731 3.33595 11508 ft 370 kts 13°
2026-05-05 13:00 37.02846 3.35278 12595 ft 377 kts 13°
2026-05-05 13:00 37.05351 3.36303 13267 ft 381 kts 13°
2026-05-05 13:01 37.13064 3.39471 15122 ft 396 kts 13°
2026-05-05 13:01 37.15672 3.40542 15735 ft 400 kts 14°
2026-05-05 13:01 37.18312 3.41706 16318 ft 408 kts 19°
2026-05-05 13:01 37.20888 3.43258 17107 ft 409 kts 24°
2026-05-05 13:02 37.23409 3.44989 17705 ft 416 kts 26°
2026-05-05 13:02 37.25950 3.46802 18155 ft 425 kts 27°
2026-05-05 13:02 37.28536 3.48651 18639 ft 430 kts 27°
2026-05-05 13:02 37.31155 3.50505 19209 ft 433 kts 26°
2026-05-05 13:03 37.33795 3.52350 19780 ft 435 kts 26°
2026-05-05 13:03 37.36457 3.54189 20301 ft 438 kts 26°
2026-05-05 13:03 37.39119 3.56014 20802 ft 442 kts 25°
2026-05-05 13:03 37.41848 3.57879 21309 ft 446 kts 25°
2026-05-05 13:04 37.44590 3.59750 21888 ft 448 kts 25°
2026-05-05 13:04 37.47338 3.61626 22401 ft 451 kts 25°
2026-05-05 13:04 37.50090 3.63505 22793 ft 457 kts 26°
2026-05-05 13:04 37.52906 3.65430 23202 ft 462 kts 26°
2026-05-05 13:05 37.55749 3.67376 23634 ft 467 kts 26°
2026-05-05 13:05 37.58618 3.69342 24016 ft 470 kts 26°
2026-05-05 13:05 37.61494 3.71316 24461 ft 471 kts 26°
2026-05-05 13:05 37.64372 3.73294 24905 ft 472 kts 26°
2026-05-05 13:06 37.67272 3.75288 25299 ft 474 kts 26°
2026-05-05 13:06 37.70153 3.77270 25611 ft 478 kts 26°
2026-05-05 13:06 37.73086 3.79289 25958 ft 481 kts 26°
2026-05-05 13:06 37.76035 3.81322 26321 ft 482 kts 26°
2026-05-05 13:07 37.78992 3.83362 26676 ft 484 kts 26°
2026-05-05 13:07 37.81924 3.85386 27028 ft 486 kts 26°
2026-05-05 13:07 37.84909 3.87449 27374 ft 488 kts 26°
2026-05-05 13:07 37.87896 3.89515 27718 ft 490 kts 26°
2026-05-05 13:08 37.90900 3.91596 28044 ft 493 kts 26°
2026-05-05 13:08 37.93931 3.93695 28285 ft 497 kts 26°
2026-05-05 13:08 37.96934 3.95778 28578 ft 499 kts 26°
2026-05-05 13:08 37.99992 3.97902 28919 ft 500 kts 26°
2026-05-05 13:09 38.03055 4.00031 29246 ft 502 kts 26°
2026-05-05 13:09 38.06127 4.02168 29545 ft 504 kts 26°
2026-05-05 13:09 38.09176 4.04292 29820 ft 506 kts 26°
2026-05-05 13:09 38.12272 4.06449 30110 ft 508 kts 26°
2026-05-05 13:10 38.15383 4.08619 30255 ft 512 kts 26°
2026-05-05 13:10 38.18522 4.10811 30413 ft 516 kts 26°
2026-05-05 13:10 38.21684 4.13022 30682 ft 516 kts 26°
2026-05-05 13:10 38.24829 4.15224 31022 ft 515 kts 26°
2026-05-05 13:11 38.27964 4.17421 31406 ft 513 kts 26°
2026-05-05 13:11 38.31082 4.19609 31779 ft 510 kts 26°
2026-05-05 13:11 38.34154 4.21767 32190 ft 507 kts 26°
2026-05-05 13:11 38.37242 4.23937 32580 ft 505 kts 26°
2026-05-05 13:12 38.40330 4.26108 32875 ft 505 kts 26°
2026-05-05 13:12 38.43409 4.28275 33152 ft 505 kts 26°
2026-05-05 13:12 38.46450 4.30417 33442 ft 505 kts 26°
2026-05-05 13:12 38.49530 4.32589 33781 ft 503 kts 26°
2026-05-05 13:13 38.52592 4.34751 34094 ft 502 kts 26°
2026-05-05 13:13 38.55655 4.36916 34344 ft 501 kts 26°
2026-05-05 13:13 38.58702 4.39071 34603 ft 501 kts 26°
2026-05-05 13:13 38.61719 4.41207 34851 ft 500 kts 25°
2026-05-05 13:14 38.64760 4.43363 35112 ft 499 kts 25°
2026-05-05 13:14 38.67804 4.45523 35371 ft 498 kts 25°
2026-05-05 13:14 38.70835 4.47675 35601 ft 498 kts 25°
2026-05-05 13:14 38.73874 4.49835 35823 ft 497 kts 25°
2026-05-05 13:15 38.76864 4.51963 35981 ft 498 kts 25°
2026-05-05 13:15 38.79904 4.54127 35962 ft 501 kts 25°
2026-05-05 13:15 38.86000 4.58476 35959 ft 500 kts 25°
2026-05-05 13:16 38.92062 4.62812 35961 ft 495 kts 25°
2026-05-05 13:16 38.98053 4.67102 35958 ft 491 kts 25°
2026-05-05 13:17 39.04132 4.70824 35996 ft 487 kts 17°
2026-05-05 13:17 39.10533 4.73936 35978 ft 495 kts 15°
2026-05-05 13:18 39.17026 4.77089 35963 ft 500 kts 16°
2026-05-05 13:18 39.23531 4.80352 35959 ft 501 kts 17°
2026-05-05 13:19 39.30001 4.83639 35959 ft 502 kts 17°
2026-05-05 13:19 39.36519 4.86957 35955 ft 503 kts 17°
2026-05-05 13:20 39.43035 4.90275 35956 ft 502 kts 17°
2026-05-05 13:20 39.49502 4.93572 35976 ft 502 kts 17°
2026-05-05 13:21 39.56016 4.96901 35942 ft 502 kts 17°
2026-05-05 13:21 39.62561 4.99993 35943 ft 495 kts
2026-05-05 13:22 39.69230 5.01859 35945 ft 491 kts
2026-05-05 13:22 39.75947 5.03576 35953 ft 491 kts
2026-05-05 13:23 39.82612 5.05350 35953 ft 491 kts
2026-05-05 13:23 39.89310 5.07197 35956 ft 491 kts
2026-05-05 13:24 39.96013 5.09066 35957 ft 492 kts
2026-05-05 13:24 40.02680 5.10928 35955 ft 492 kts
2026-05-05 13:25 40.09381 5.12799 35948 ft 492 kts
2026-05-05 13:25 40.16088 5.14675 35976 ft 493 kts
2026-05-05 13:26 40.22812 5.16558 35956 ft 493 kts
2026-05-05 13:26 40.29537 5.18446 35950 ft 494 kts
2026-05-05 13:27 40.36240 5.20332 35986 ft 494 kts
2026-05-05 13:27 40.42993 5.22236 35953 ft 495 kts
2026-05-05 13:28 40.49738 5.24142 35955 ft 496 kts
2026-05-05 13:28 40.56456 5.26044 35947 ft 496 kts
2026-05-05 13:29 40.63209 5.27960 35951 ft 496 kts
2026-05-05 13:29 40.69944 5.29875 35939 ft 496 kts
2026-05-05 13:30 40.76694 5.31798 35948 ft 495 kts
2026-05-05 13:30 40.83446 5.33725 35927 ft 496 kts
2026-05-05 13:31 40.90155 5.35644 35936 ft 495 kts
2026-05-05 13:31 40.96896 5.37577 35945 ft 494 kts
2026-05-05 13:32 41.03581 5.39501 35956 ft 494 kts
2026-05-05 13:32 41.10300 5.41471 35948 ft 494 kts
2026-05-05 13:33 41.17014 5.43454 35944 ft 493 kts
2026-05-05 13:33 41.23680 5.45423 35974 ft 493 kts
2026-05-05 13:34 41.30398 5.47409 35950 ft 493 kts
2026-05-05 13:34 41.37081 5.49387 35947 ft 494 kts
2026-05-05 13:35 41.43796 5.51380 35966 ft 494 kts
2026-05-05 13:35 41.50491 5.53371 35946 ft 495 kts
2026-05-05 13:36 41.57222 5.55378 35948 ft 495 kts
2026-05-05 13:36 41.63962 5.57391 35945 ft 496 kts
2026-05-05 13:37 41.70680 5.59402 35948 ft 497 kts
2026-05-05 13:37 41.77443 5.61431 35946 ft 498 kts
2026-05-05 13:38 41.84208 5.63299 35946 ft 496 kts
2026-05-05 13:38 41.91021 5.64997 35950 ft 497 kts
2026-05-05 13:39 41.97793 5.66692 35945 ft 498 kts
2026-05-05 13:39 42.04618 5.68439 35942 ft 499 kts
2026-05-05 13:40 42.11450 5.70207 35944 ft 500 kts
2026-05-05 13:40 42.18245 5.71973 35935 ft 499 kts
2026-05-05 13:41 42.25078 5.73750 35936 ft 498 kts
2026-05-05 13:41 42.31883 5.75522 35944 ft 498 kts
2026-05-05 13:42 42.38647 5.77286 35940 ft 497 kts
2026-05-05 13:42 42.45445 5.79064 35937 ft 496 kts
2026-05-05 13:43 42.52238 5.80845 35942 ft 496 kts
2026-05-05 13:43 42.58979 5.82615 35942 ft 495 kts
2026-05-05 13:44 42.65720 5.84390 35943 ft 495 kts
2026-05-05 13:44 42.72497 5.86177 35943 ft 495 kts
2026-05-05 13:45 42.79278 5.87970 35939 ft 495 kts
2026-05-05 13:45 42.86009 5.89753 35942 ft 495 kts
2026-05-05 13:46 42.92793 5.91554 35946 ft 496 kts
2026-05-05 13:46 42.99543 5.93351 35942 ft 496 kts
2026-05-05 13:47 43.06342 5.95166 35939 ft 497 kts
2026-05-05 13:47 43.13138 5.96983 35946 ft 497 kts
2026-05-05 13:48 43.19909 5.98798 35935 ft 498 kts
2026-05-05 13:48 43.26721 6.00628 35948 ft 496 kts
2026-05-05 13:49 43.33484 6.02449 35933 ft 497 kts
2026-05-05 13:49 43.40287 6.04237 35905 ft 493 kts
2026-05-05 13:50 43.47031 6.05026 35916 ft 487 kts 356°
2026-05-05 13:50 43.52676 6.05447 35917 ft 488 kts 356°
2026-05-05 13:51 43.59468 6.06045 35925 ft 489 kts 358°
2026-05-05 13:51 43.66268 6.06722 35908 ft 489 kts 358°
2026-05-05 13:52 43.73067 6.07402 35909 ft 490 kts 359°
2026-05-05 13:52 43.77553 6.08470 35911 ft 498 kts 11°
2026-05-05 13:52 43.79753 6.09459 35901 ft 502 kts 18°
2026-05-05 13:53 43.86079 6.13696 35926 ft 505 kts 23°
2026-05-05 13:53 43.92338 6.18132 35917 ft 505 kts 23°
2026-05-05 13:54 43.98589 6.22467 35924 ft 504 kts 22°
2026-05-05 13:54 44.04895 6.26786 35920 ft 504 kts 22°
2026-05-05 13:55 44.11159 6.31083 35930 ft 503 kts 23°
2026-05-05 13:55 44.17451 6.35417 35923 ft 503 kts 23°
2026-05-05 13:56 44.23690 6.39726 35927 ft 503 kts 23°
2026-05-05 13:56 44.29979 6.44088 35925 ft 504 kts 23°
2026-05-05 13:57 44.36276 6.48468 35893 ft 504 kts 23°
2026-05-05 13:57 44.42553 6.52844 35917 ft 504 kts 23°
2026-05-05 13:58 44.48815 6.57217 35925 ft 504 kts 23°
2026-05-05 13:58 44.55108 6.61597 35920 ft 505 kts 23°
2026-05-05 13:59 44.64535 6.68163 35907 ft 505 kts 23°
2026-05-05 14:00 44.74003 6.74788 35915 ft 505 kts 23°
2026-05-05 14:00 44.80501 6.78087 35946 ft 495 kts
2026-05-05 14:01 44.87294 6.78724 35929 ft 484 kts 351°
2026-05-05 14:01 44.94011 6.78177 35904 ft 483 kts 350°
2026-05-05 14:02 45.00726 6.77655 35923 ft 481 kts 351°
2026-05-05 14:02 45.07382 6.77201 35929 ft 481 kts 351°
2026-05-05 14:03 45.14087 6.76762 35918 ft 481 kts 351°
2026-05-05 14:03 45.20764 6.76321 35931 ft 481 kts 351°
2026-05-05 14:04 45.27467 6.75876 35908 ft 481 kts 351°
2026-05-05 14:04 45.34135 6.75432 35908 ft 482 kts 351°
2026-05-05 14:05 45.40861 6.75024 35905 ft 486 kts 354°
2026-05-05 14:05 45.44271 6.75400 35889 ft 494 kts
2026-05-05 14:05 45.47619 6.76621 35920 ft 499 kts 16°
2026-05-05 14:06 45.50785 6.78596 35883 ft 505 kts 27°
2026-05-05 14:06 45.53847 6.81120 35918 ft 506 kts 28°
2026-05-05 14:06 45.59886 6.86320 35893 ft 506 kts 29°
2026-05-05 14:07 45.65938 6.91453 35910 ft 505 kts 28°
2026-05-05 14:07 45.71959 6.96468 35914 ft 501 kts 28°
2026-05-05 14:08 45.77996 7.01493 35960 ft 500 kts 28°
2026-05-05 14:08 45.84014 7.06523 35932 ft 499 kts 28°
2026-05-05 14:09 45.90004 7.11549 35907 ft 498 kts 28°
2026-05-05 14:09 45.95935 7.16559 35918 ft 497 kts 28°
2026-05-05 14:10 46.01893 7.21608 35895 ft 497 kts 28°
2026-05-05 14:10 46.07840 7.26659 35882 ft 498 kts 28°
2026-05-05 14:11 46.13827 7.31756 35854 ft 499 kts 28°
2026-05-05 14:11 46.19782 7.36909 35856 ft 499 kts 29°
2026-05-05 14:12 46.25737 7.41969 35863 ft 497 kts 28°
2026-05-05 14:12 46.31710 7.47054 35865 ft 498 kts 29°
2026-05-05 14:13 46.37678 7.52183 35887 ft 498 kts 30°
2026-05-05 14:13 46.43601 7.57295 35891 ft 496 kts 30°
2026-05-05 14:14 46.49527 7.62421 35864 ft 494 kts 30°
2026-05-05 14:14 46.55400 7.67510 35862 ft 490 kts 30°
2026-05-05 14:15 46.61277 7.72528 35881 ft 488 kts 27°
2026-05-05 14:15 46.67270 7.77148 35874 ft 486 kts 26°
2026-05-05 14:16 46.73289 7.81668 35888 ft 486 kts 26°
2026-05-05 14:16 46.79257 7.86207 35884 ft 486 kts 26°
2026-05-05 14:17 46.85223 7.90798 35884 ft 487 kts 26°
2026-05-05 14:17 46.91223 7.95441 35880 ft 489 kts 27°
2026-05-05 14:18 46.97225 8.00099 35542 ft 484 kts 27°
2026-05-05 14:18 47.00189 8.02403 35296 ft 480 kts 27°
2026-05-05 14:18 47.03133 8.04693 35056 ft 478 kts 27°
2026-05-05 14:19 47.06071 8.06981 34822 ft 480 kts 27°
2026-05-05 14:19 47.08989 8.09256 34596 ft 481 kts 27°
2026-05-05 14:19 47.11966 8.11579 34376 ft 482 kts 27°
2026-05-05 14:19 47.14934 8.13899 34147 ft 483 kts 27°
2026-05-05 14:20 47.17903 8.16223 33917 ft 483 kts 27°
2026-05-05 14:20 47.20875 8.18552 33657 ft 483 kts 27°
2026-05-05 14:20 47.23845 8.20883 33420 ft 484 kts 28°
2026-05-05 14:20 47.26819 8.23220 33106 ft 483 kts 28°
2026-05-05 14:21 47.29763 8.25536 32900 ft 479 kts 28°
2026-05-05 14:21 47.32667 8.27827 32853 ft 473 kts 28°
2026-05-05 14:21 47.38495 8.32426 32848 ft 476 kts 28°
2026-05-05 14:22 47.44367 8.37069 32848 ft 481 kts 28°
2026-05-05 14:22 47.50257 8.41741 32861 ft 486 kts 28°
2026-05-05 14:23 47.56285 8.46521 32867 ft 496 kts 28°
2026-05-05 14:23 47.62384 8.51414 32851 ft 498 kts 29°
2026-05-05 14:24 47.68456 8.56264 32851 ft 497 kts 29°
2026-05-05 14:24 47.74544 8.61138 32847 ft 496 kts 29°
2026-05-05 14:25 47.80610 8.66017 32841 ft 494 kts 29°
2026-05-05 14:25 47.86632 8.70867 32847 ft 493 kts 29°
2026-05-05 14:26 47.92680 8.75753 32851 ft 492 kts 30°
2026-05-05 14:26 47.98649 8.80590 32841 ft 490 kts 30°
2026-05-05 14:27 48.04637 8.85457 32847 ft 489 kts 30°
2026-05-05 14:27 48.10559 8.90279 32824 ft 473 kts 30°
2026-05-05 14:28 48.16368 8.94560 32844 ft 468 kts 20°
2026-05-05 14:28 48.22765 8.96433 32740 ft 472 kts
2026-05-05 14:29 48.26067 8.96875 32210 ft 474 kts
2026-05-05 14:29 48.29329 8.97293 31756 ft 468 kts
2026-05-05 14:29 48.32560 8.97732 31311 ft 463 kts
2026-05-05 14:29 48.35761 8.98197 30839 ft 460 kts
2026-05-05 14:30 48.38933 8.98679 30382 ft 457 kts
2026-05-05 14:30 48.42086 8.99166 29931 ft 454 kts
2026-05-05 14:30 48.45180 8.99642 29413 ft 450 kts
2026-05-05 14:30 48.48288 9.00120 28943 ft 446 kts
2026-05-05 14:31 48.51359 9.00591 28486 ft 441 kts
2026-05-05 14:31 48.54407 9.01059 28034 ft 438 kts
2026-05-05 14:31 48.57426 9.01524 27569 ft 435 kts
2026-05-05 14:31 48.60443 9.01989 27111 ft 431 kts
2026-05-05 14:32 48.63376 9.02450 26669 ft 428 kts
2026-05-05 14:32 48.66311 9.03064 26234 ft 424 kts
2026-05-05 14:32 48.69215 9.03777 25793 ft 421 kts 10°
2026-05-05 14:32 48.72109 9.04513 25358 ft 418 kts 10°
2026-05-05 14:33 48.74968 9.05231 24924 ft 416 kts 10°
2026-05-05 14:33 48.77824 9.05931 24482 ft 413 kts 10°
2026-05-05 14:33 48.80631 9.06608 24051 ft 412 kts 10°
2026-05-05 14:33 48.83463 9.07286 23601 ft 410 kts
2026-05-05 14:34 48.86287 9.07961 23115 ft 409 kts
2026-05-05 14:34 48.89091 9.08608 22636 ft 406 kts
2026-05-05 14:34 48.91893 9.09050 22177 ft 404 kts
2026-05-05 14:34 48.94659 9.09393 21736 ft 400 kts
2026-05-05 14:35 48.97428 9.09747 21320 ft 397 kts
2026-05-05 14:35 49.00174 9.10125 20898 ft 395 kts
2026-05-05 14:35 49.02916 9.10515 20419 ft 394 kts
2026-05-05 14:35 49.05646 9.10905 19934 ft 393 kts
2026-05-05 14:36 49.08370 9.11295 19457 ft 393 kts
2026-05-05 14:36 49.11059 9.11680 18984 ft 392 kts
2026-05-05 14:36 49.13789 9.12071 18502 ft 392 kts
2026-05-05 14:36 49.16506 9.12459 17995 ft 392 kts
2026-05-05 14:37 49.19224 9.12848 17461 ft 391 kts
2026-05-05 14:37 49.21931 9.13235 16951 ft 389 kts
2026-05-05 14:37 49.24598 9.13618 16466 ft 387 kts
2026-05-05 14:37 49.27273 9.14003 15979 ft 385 kts
2026-05-05 14:38 49.29917 9.14501 15469 ft 383 kts 11°
2026-05-05 14:38 49.31652 9.15052 15142 ft 382 kts 13°
2026-05-05 14:38 49.34232 9.16017 14624 ft 381 kts 14°
2026-05-05 14:38 49.37641 9.17341 13952 ft 380 kts 14°
2026-05-05 14:39 49.40205 9.18308 13406 ft 379 kts 14°
2026-05-05 14:39 49.41913 9.18937 13021 ft 378 kts 14°
2026-05-05 14:39 49.44473 9.19861 12474 ft 376 kts 14°
2026-05-05 14:39 49.47851 9.21066 11781 ft 373 kts 14°
2026-05-05 14:40 49.49562 9.21675 11466 ft 372 kts 14°
2026-05-05 14:40 49.52056 9.22562 10958 ft 371 kts 14°
2026-05-05 14:40 49.54547 9.23450 10742 ft 361 kts 14°
2026-05-05 14:40 49.56966 9.24313 10585 ft 351 kts 14°
2026-05-05 14:41 49.59320 9.25154 10450 ft 341 kts 14°
2026-05-05 14:41 49.61610 9.25973 10304 ft 332 kts 14°
2026-05-05 14:41 49.63811 9.26762 10179 ft 324 kts 14°
2026-05-05 14:41 49.65989 9.27542 10054 ft 317 kts 14°
2026-05-05 14:42 49.68111 9.28303 9928 ft 310 kts 14°
2026-05-05 14:42 49.70196 9.29052 9835 ft 301 kts 14°
2026-05-05 14:42 49.72208 9.29780 9839 ft 291 kts 14°
2026-05-05 14:42 49.74130 9.30463 9819 ft 282 kts 14°
2026-05-05 14:43 49.76022 9.31141 9705 ft 278 kts 14°
2026-05-05 14:43 49.77907 9.31822 9421 ft 278 kts 14°
2026-05-05 14:43 49.79791 9.32505 9153 ft 277 kts 14°
2026-05-05 14:43 49.81663 9.33182 8893 ft 275 kts 14°
2026-05-05 14:44 49.83542 9.33725 8611 ft 274 kts
2026-05-05 14:44 49.85366 9.33063 8346 ft 270 kts 328°
2026-05-05 14:44 49.86710 9.31151 8120 ft 264 kts 302°
2026-05-05 14:44 49.87487 9.28600 7868 ft 260 kts 285°
2026-05-05 14:45 49.88001 9.25916 7640 ft 258 kts 284°
2026-05-05 14:45 49.88494 9.23232 7391 ft 258 kts 283°
2026-05-05 14:45 49.88981 9.20585 7140 ft 257 kts 284°
2026-05-05 14:45 49.89478 9.17917 6920 ft 255 kts 284°
2026-05-05 14:46 49.89985 9.15293 6849 ft 253 kts 284°
2026-05-05 14:46 49.90472 9.12675 6827 ft 252 kts 284°
2026-05-05 14:46 49.90963 9.10052 6846 ft 254 kts 284°
2026-05-05 14:46 49.91463 9.07410 6830 ft 255 kts 284°
2026-05-05 14:47 49.91961 9.04775 6824 ft 254 kts 284°
2026-05-05 14:47 49.92460 9.02139 6684 ft 257 kts 284°
2026-05-05 14:47 49.92967 8.99451 6451 ft 260 kts 284°
2026-05-05 14:47 49.93469 8.96789 6201 ft 260 kts 284°
2026-05-05 14:48 49.94051 8.94139 5927 ft 261 kts 296°
2026-05-05 14:48 49.95293 8.92119 5656 ft 263 kts 329°
2026-05-05 14:48 49.97033 8.91307 5414 ft 263 kts 355°
2026-05-05 14:48 49.98860 8.91338 5181 ft 262 kts
2026-05-05 14:49 50.00672 8.91481 5027 ft 258 kts
2026-05-05 14:49 50.02351 8.92344 4988 ft 256 kts 36°
2026-05-05 14:49 50.03546 8.94352 4940 ft 255 kts 62°
2026-05-05 14:49 50.04240 8.96872 4821 ft 258 kts 71°
2026-05-05 14:50 50.04846 8.99537 4635 ft 263 kts 71°
2026-05-05 14:50 50.05466 9.02264 4397 ft 273 kts 71°
2026-05-05 14:50 50.06119 9.05095 4078 ft 277 kts 70°
2026-05-05 14:50 50.07115 9.07560 3991 ft 269 kts 43°
2026-05-05 14:51 50.08686 9.08966 3977 ft 257 kts 13°
2026-05-05 14:51 50.10416 9.08978 3984 ft 243 kts 342°
2026-05-05 14:51 50.11988 9.08040 3977 ft 242 kts 334°
2026-05-05 14:51 50.13342 9.06563 3985 ft 237 kts 308°
2026-05-05 14:52 50.14141 9.04408 3972 ft 232 kts 279°
2026-05-05 14:52 50.14047 9.01968 4005 ft 225 kts 256°
2026-05-05 14:52 50.13694 8.99586 3993 ft 224 kts 253°
2026-05-05 14:52 50.13245 8.97249 3993 ft 226 kts 250°
2026-05-05 14:53 50.12725 8.94950 3994 ft 228 kts 248°
2026-05-05 14:53 50.12177 8.92652 3971 ft 222 kts 248°
2026-05-05 14:53 50.11649 8.90465 3969 ft 210 kts 248°
2026-05-05 14:53 50.11153 8.88424 3987 ft 195 kts 248°
2026-05-05 14:54 50.10689 8.86499 3982 ft 187 kts 248°
2026-05-05 14:54 50.10228 8.84590 3843 ft 191 kts 248°
2026-05-05 14:54 50.09762 8.82655 3591 ft 189 kts 247°
2026-05-05 14:54 50.09304 8.80755 3344 ft 186 kts 248°
2026-05-05 14:55 50.08859 8.78911 3102 ft 182 kts 248°
2026-05-05 14:55 50.08417 8.77069 2867 ft 179 kts 248°
2026-05-05 14:55 50.07984 8.75265 2618 ft 175 kts 248°
2026-05-05 14:55 50.07565 8.73518 2394 ft 168 kts 248°
2026-05-05 14:56 50.07174 8.71892 2169 ft 152 kts 248°
2026-05-05 14:56 50.06811 8.70382 1995 ft 149 kts 249°
2026-05-05 14:56 50.06448 8.68866 1796 ft 149 kts 248°
2026-05-05 14:56 50.06091 8.67378 1589 ft 143 kts 249°
2026-05-05 14:57 50.05754 8.65944 1384 ft 139 kts 248°
2026-05-05 14:57 50.05407 8.64526 1187 ft 142 kts 247°
2026-05-05 14:57 50.05054 8.63055 1065 ft 150 kts 249°
2026-05-05 14:57 50.04688 8.61496 859 ft 155 kts 249°
2026-05-05 14:58 50.04315 8.59946 620 ft 148 kts 249°
2026-05-05 14:58 50.03967 8.58519 391 ft 136 kts 250°
2026-05-05 14:58 50.03671 8.57249 356 ft 104 kts 250°
2026-05-05 14:58 50.03497 8.56520 354 ft 19 kts 250°
2026-05-05 14:59 50.03458 8.56360 354 ft 16 kts 249°
2026-05-05 14:59 50.03427 8.56193 352 ft 16 kts 265°
2026-05-05 14:59 50.03441 8.56020 350 ft 19 kts 280°
2026-05-05 14:59 50.03459 8.55860 344 ft 12 kts 279°
2026-05-05 15:00 50.03472 8.55738 343 ft 11 kts 281°
2026-05-05 15:00 50.03511 8.55699 344 ft 11 kts 358°
2026-05-05 15:00 50.03573 8.55809 350 ft 11 kts 70°
2026-05-05 15:00 50.03598 8.55916 352 ft 10 kts 70°
2026-05-05 15:01 50.03625 8.56028 352 ft 12 kts 70°
2026-05-05 15:01 50.03662 8.56184 352 ft 18 kts 70°
2026-05-05 15:01 50.03707 8.56372 355 ft 19 kts 70°
2026-05-05 15:01 50.03752 8.56560 358 ft 19 kts 69°
2026-05-05 15:02 50.03814 8.56820 360 ft 29 kts 69°
2026-05-05 15:02 50.03881 8.57103 363 ft 27 kts 70°
2026-05-05 15:02 50.03944 8.57364 364 ft 25 kts 70°
2026-05-05 15:02 50.04002 8.57610 367 ft 23 kts 70°
2026-05-05 15:03 50.04058 8.57842 368 ft 22 kts 69°
2026-05-05 15:03 50.04112 8.58067 372 ft 22 kts 69°
2026-05-05 15:03 50.04165 8.58286 369 ft 21 kts 69°
2026-05-05 15:03 50.04216 8.58498 371 ft 21 kts 69°
2026-05-05 15:04 50.04265 8.58702 369 ft 20 kts 70°
2026-05-05 15:04 50.04312 8.58902 374 ft 19 kts 69°
2026-05-05 15:04 50.04359 8.59095 376 ft 19 kts 69°
2026-05-05 15:04 50.04404 8.59283 375 ft 18 kts 69°
2026-05-05 15:05 50.04573 8.59467 372 ft 17 kts 358°
2026-05-05 15:05 50.04688 8.59446 371 ft 16 kts 345°
2026-05-05 15:05 50.04794 8.59389 371 ft 16 kts 339°
2026-05-05 15:06 50.04903 8.59373 366 ft 17 kts 14°
2026-05-05 15:06 50.04991 8.59341 367 ft 13 kts 339°
2026-05-05 15:06 50.05076 8.59285 365 ft 8 kts 314°
2026-05-05 15:06 50.05127 8.59243 360 ft 8 kts 340°
2026-05-05 15:07 50.05149 8.59225 362 ft 3 kts 326°
2026-05-05 15:07 50.05162 8.59205 362 ft 3 kts 316°
2026-05-05 15:07 50.05168 8.59197 358 ft 0 kts 316°
2026-05-05 15:10 50.05168 8.59198 358 ft 0 kts 316°